• MPC Preparation (Info)

  • MPEC 2003-G70 : 2003 GP51

    The following Minor Planet Electronic Circular may be linked-to from your own Web pages, but must not otherwise be redistributed electronically.

    A form allowing access to any MPEC is at the bottom of this page.


    Read MPEC 2003-G69 Read MPEC 2003-H01


    M.P.E.C. 2003-G70                                Issued 2003 Apr. 15, 15:56 UT
    
         The Minor Planet Electronic Circulars contain information on unusual
             minor planets and routine data on comets.  They are published
       on behalf of Commission 20 of the International Astronomical Union by the
              Minor Planet Center, Smithsonian Astrophysical Observatory,
                              Cambridge, MA 02138, U.S.A.
    
                 Prepared using the Tamkin Foundation Computer Network
    
                                  MPC@CFA.HARVARD.EDU
              URL http://cfa-www.harvard.edu/iau/mpc.html  ISSN 1523-6714
    
                                       2003 GP51
    
    Observations:
         K03G51P* C2003 04 14.20572 14 24 35.68 +16 13 26.1          18.4 R      699
         K03G51P  C2003 04 14.21914 14 24 34.66 +16 12 01.1                      699
         K03G51P  C2003 04 14.23255 14 24 33.83 +16 10 36.8                      699
         K03G51P  C2003 04 14.24597 14 24 32.71 +16 09 13.6                      699
         K03G51P 1C2003 04 14.75288 14 24 02.86 +15 18 34.4                      413
         K03G51P 1C2003 04 14.75434 14 24 02.76 +15 18 25.5          18.0 R      413
         K03G51P 1C2003 04 14.75437 14 24 02.76 +15 18 25.2          18.3 R      413
         K03G51P 1C2003 04 14.75585 14 24 02.66 +15 18 16.8          18.2 R      413
         K03G51P  C2003 04 15.24420 14 23 46.40 +14 29 45.1          17.0 R      649
         K03G51P  C2003 04 15.24776 14 23 46.23 +14 29 23.4          18.3 R      649
         K03G51P  C2003 04 15.25131 14 23 45.95 +14 29 05.7          17.6 R      649
         K03G51P 1C2003 04 15.51816 14 23 36.35 +14 06 02.1          18.3 R      413
         K03G51P 1C2003 04 15.52323 14 23 36.01 +14 05 34.8          18.2 R      413
    
    Observer details:
    413 Siding Spring.  Observers G. J. Garradd, R. H. McNaught.  1.0-m f/8
        reflector + CCD.
    649 Powell Observatory, Louisburg.  Observer R. Fredrick.  0.75-m Newtonian
        + CCD.
    699 Lowell Observatory-LONEOS.  Observer B. W. Koehn.  0.59-m LONEOS Schmidt
        + CCD.
    
    Orbital elements:
    2003 GP51                                                            PHA 0.038
    Epoch 2003 Apr. 11.0 TT = JDT 2452740.5                 MPC
    M  13.94625              (2000.0)            P               Q
    n   0.30633021     Peri.  358.07529     -0.75960171     -0.64963821
    a   2.1794295      Node   141.35149     +0.59738592     -0.71588159
    e   0.6074243      Incl.    2.86643     +0.25716786     -0.25589791
    P   3.22           H   21.9           G   0.15
    From 13 observations 2003 Apr. 14-15.
    
    Ephemeris:
    2003 GP51                a,e,i = 2.18, 0.61, 3                   q = 0.8556
    Date    TT    R. A. (2000) Decl.     Delta      r     Elong.  Phase     V
    2003 04 11    14 27.71   +23 27.7    0.079    1.067   144.0    33.5    17.9
    2003 04 21    14 20.53   +07 54.3    0.152    1.148   159.3    18.0    19.0
    2003 05 01    14 17.28   +01 58.5    0.235    1.234   162.8    14.0    20.0
    2003 05 11    14 16.39   -01 26.1    0.329    1.323   159.1    15.8    21.0
    2003 05 21    14 17.83   -03 52.8    0.434    1.412   152.5    19.3    21.8
    
    Timothy B. Spahr             (C) Copyright 2003 MPC           M.P.E.C. 2003-G70
    

    Read MPEC 2003-G69 Read MPEC 2003-H01


    MPEC number:

    Enter an MPEC number in one of the following forms:

    • 1997-B01 (the full form)
    • J97B01 (the packed version of the full form)
    • B01 (the abbreviated form)